Hourly Data Report for July 03, 2017

All times are specified in Local Standard Time (LST). Add 1 hour to adjust for Daylight Saving Time where and when it is observed.

LUTSELK'E CS
NORTHWEST TERRITORIES

62°24'56.030" N
110°41'25.070" W
178.90 m
220L002
71529
XLU

Download Data

Hourly Data (July 2017)
Hourly Data Report for July 3, 2017
Temp Definition
°C
Dew Point Temp Definition
°C
Rel Hum Definition
%
Wind Dir Definition
10's deg

Wind Spd Definition
km/h
Visibility Definition
km
Stn Press Definition
kPa
Hmdx Definition


Wind Chill Definition


Weather Definition


TIME
00:00 14.7 12.6 87 LegendMM LegendMM   98.31     LegendNANA
01:00 13.7 12.0 90 LegendMM LegendMM   98.33     LegendNANA
02:00 13.0 11.4 90 LegendMM LegendMM   98.33     LegendNANA
03:00 12.8 11.5 92 LegendMM LegendMM   98.29     LegendNANA
04:00 13.5 11.6 89 LegendMM LegendMM   98.29     LegendNANA
05:00 14.5 12.1 86 LegendMM LegendMM   98.28     LegendNANA
06:00 15.9 12.8 82 LegendMM LegendMM   98.29     LegendNANA
07:00 16.6 13.2 80 LegendMM LegendMM   98.28     LegendNANA
08:00 17.2 13.2 77 LegendMM LegendMM   98.21     LegendNANA
09:00 18.6 13.4 72 LegendMM LegendMM   98.17     LegendNANA
10:00 19.9 14.1 69 LegendMM LegendMM   98.15     LegendNANA
11:00 20.1 14.2 69 LegendMM LegendMM   98.11     LegendNANA
12:00 21.3 14.5 65 LegendMM LegendMM   98.06 25   LegendNANA
13:00 22.3 13.9 59 LegendMM LegendMM   98.01 26   LegendNANA
14:00 23.5 13.4 53 LegendMM LegendMM   97.96 27   LegendNANA
15:00 23.0 14.0 57 LegendMM LegendMM   97.90 26   LegendNANA
16:00 21.0 13.5 62 LegendMM LegendMM   97.90     LegendNANA
17:00 15.6 13.1 85 LegendMM LegendMM   98.01     LegendNANA
18:00 15.0 13.4 90 LegendMM LegendMM   97.94     LegendNANA
19:00 15.0 13.2 89 LegendMM LegendMM   97.91     LegendNANA
20:00 11.7 10.4 92 LegendMM LegendMM   97.91     LegendNANA
21:00 11.7 10.6 93 LegendMM LegendMM   97.88     LegendNANA
22:00 12.1 11.0 93 LegendMM LegendMM   97.81     LegendNANA
23:00 11.4 10.3 93 LegendMM LegendMM   97.80     LegendNANA

Notes on Data Quality.

Legend

  • E = Estimated
  • M = Missing
  • NA = Not Available
  • ‡ = Partner data that is not subject to review by the National Climate Archives
Date modified: